HST,Max TemperatureF,Mean TemperatureF,Min TemperatureF,Max Dew PointF,MeanDew PointF,Min DewpointF,Max Humidity, Mean Humidity, Min Humidity, Max Sea Level PressureIn, Mean Sea Level PressureIn, Min Sea Level PressureIn, Max VisibilityMiles, Mean VisibilityMiles, Min VisibilityMiles, Max Wind SpeedMPH, Mean Wind SpeedMPH, Max Gust SpeedMPH,PrecipitationIn, CloudCover, Events, WindDirDegrees
2012-1-1,82,70,57,65,60,54,86,70,54,30.09,30.04,29.99,10,10,10,22,8,25,0.00,1,,64
2012-1-2,82,71,59,67,61,53,84,71,58,30.14,30.09,30.05,10,10,10,10,5,14,0.00,0,,79
2012-1-3,82,72,61,68,63,52,78,70,62,30.22,30.15,30.09,10,10,10,18,9,22,0.00,3,,29
2012-1-4,86,76,66,69,64,59,81,68,54,30.23,30.18,30.13,10,10,5,22,11,28,0.00,4,Rain,52
2012-1-5,82,72,62,63,59,55,78,62,45,30.24,30.17,30.09,10,10,10,25,14,35,0.00,0,,62
2012-1-6,83,70,57,60,56,52,78,61,43,30.17,30.12,30.05,10,10,10,24,9,30,0.00,0,,69
2012-1-7,82,71,60,59,56,53,78,60,42,30.14,30.11,30.06,10,10,10,22,8,25,0.00,2,,74
2012-1-8,84,70,55,64,58,51,81,65,49,30.13,30.09,30.03,10,10,10,18,6,22,0.00,1,,99
2012-1-9,81,70,58,63,60,53,78,66,54,30.14,30.10,30.04,10,10,10,24,9,31,0.00,1,,66
2012-1-10,83,72,60,63,61,56,81,65,49,30.11,30.06,29.99,10,10,10,24,10,30,0.00,1,,55
2012-1-11,81,71,61,65,60,56,84,68,52,30.08,30.02,29.97,10,10,10,18,6,22,0.00,3,,67
2012-1-12,80,71,62,64,61,57,87,71,54,30.01,29.95,29.88,10,10,10,20,7,24,0.00,5,,182
2012-1-13,83,73,62,63,60,56,81,62,43,29.93,29.89,29.85,10,10,10,23,11,29,0.00,1,,197
2012-1-14,82,70,58,63,58,54,90,66,42,29.97,29.92,29.87,10,10,10,23,9,26,0.00,1,,194
2012-1-15,83,73,63,67,64,57,79,65,51,30.03,29.95,29.87,10,10,10,31,16,39,0.00,1,,201
2012-1-16,86,80,74,68,66,63,79,64,48,30.04,30.00,29.94,10,10,10,26,16,35,0.00,2,,214
2012-1-17,83,79,74,68,66,63,79,65,51,30.04,29.98,29.94,10,10,10,33,20,43,0.00,2,,213
2012-1-18,84,79,73,67,65,61,79,63,47,30.10,30.02,29.97,10,10,10,23,18,29,0.00,0,,190
2012-1-19,83,73,62,68,62,59,87,71,55,30.16,30.11,30.06,10,10,10,23,10,28,0.00,1,,65
2012-1-20,88,73,58,63,60,55,84,62,39,30.16,30.10,30.04,10,10,10,21,6,24,0.00,1,,112
2012-1-21,85,75,65,65,61,57,79,61,43,30.19,30.12,30.05,10,10,10,29,15,35,0.00,1,,57
2012-1-22,85,75,65,63,59,56,73,58,43,30.13,30.04,29.96,10,10,10,29,11,39,0.00,2,,83
2012-1-23,82,73,63,63,61,58,84,68,51,30.09,30.04,29.99,10,10,10,14,5,16,0.00,3,,176
2012-1-24,87,74,60,65,61,55,84,66,48,30.09,30.03,29.96,10,10,10,18,6,22,0.00,1,,138
2012-1-25,83,72,61,62,60,57,87,67,47,30.06,30.02,29.97,10,10,10,13,4,18,0.00,1,,87
2012-1-26,84,71,58,64,60,53,84,65,46,30.02,29.98,29.90,10,10,10,22,7,29,0.00,1,,182
2012-1-27,83,73,63,66,62,57,87,67,47,30.08,30.01,29.92,10,10,10,18,8,21,0.00,2,,45
2012-1-28,84,77,69,65,60,53,79,61,43,30.16,30.08,30.02,10,10,10,26,17,36,0.00,1,,50
2012-1-29,82,76,69,63,61,59,78,64,49,30.19,30.14,30.09,10,10,10,30,16,38,0.00,1,Rain,54
2012-1-30,82,72,62,62,59,56,78,65,51,30.14,30.08,30.01,10,10,10,26,15,36,0.00,1,,64
2012-1-31,85,74,63,61,58,55,73,58,43,30.05,30.01,29.94,10,10,10,22,8,30,0.00,3,,80